Regional Weather Roundup
Issued by NWS Upton, NY

Current Version | Previous Version | Graphics & Text | Print | Product List | Glossary Off
Versions: 1 2 3 4 5 6 7 8 9 10 11 12 13 14 15 16 17 18 19 20 21 22 23 24 25 26 27

000
ASUS41 KOKX 230308
RWROKX

REGIONAL WEATHER ROUNDUP
NATIONAL WEATHER SERVICE NEW YORK NY
1100 PM EDT SAT APR 22 2017

NOTE: "FAIR" INDICATES FEW OR NO CLOUDS BELOW 12,000 FEET WITH NO
SIGNIFICANT WEATHER AND/OR OBSTRUCTIONS TO VISIBILITY.

NYZ071-072-176-178-NJZ106-104-230400-
NEW YORK CITY METRO AREA

CITY           SKY/WX    TMP DP  RH WIND       PRES   REMARKS
Central Park   CLOUDY    52  40  63 VRB5      30.01F
Wall St Helipt CLOUDY    53  40  61 E5        30.00S
Bronx Bot Gard   N/A     52  37  58 NW6       29.98F
LaGuardia APRT CLOUDY    54  39  57 N10       29.99R
Kennedy INTL   CLOUDY    53  41  63 N12       29.99S
Breezy Point     N/A     52 N/A N/A N14         N/A
Newark/Liberty CLOUDY    52  37  56 N12       29.99F
Teterboro      CLOUDY    52  38  58 N7        29.99S
$$

NYZ177-179-078>081-230400-
LONG ISLAND NEW YORK

CITY           SKY/WX    TMP DP  RH WIND       PRES   REMARKS
Jones Beach      N/A     52 N/A N/A N10         N/A
Matinecock PT    N/A     52 N/A N/A N8          N/A
Farmingdale    CLOUDY    52  41  66 N10       29.98R
MacArthur/ISP  CLOUDY    50  41  71 N8        29.97R
Shirley        CLOUDY    49  46  90 N7        29.98R
Mt Sinai Harb    N/A    N/A N/A N/A NW3         N/A
Westhampton    CLOUDY    47  45  93 CALM      29.99R
East Hampton   CLOUDY    46  45  96 CALM      29.97R
Montauk          N/A     48  46  93 CALM      29.99R
$$

NYZ052-065-067-230400-
HUDSON VALLEY

CITY           SKY/WX    TMP DP  RH WIND       PRES   REMARKS
White Plains   CLOUDY    50  38  63 NW9       29.98S
Larchmont Harb   N/A     52 N/A N/A NW6         N/A
Croton O-T Hud   N/A     50 N/A N/A N6          N/A
Newburgh       NOT AVBL
Montgomery     CLOUDY    47  36  65 NW3       30.00R
Poughkeepsie   MOCLDY    46  37  71 CALM      30.00R
Albany         MOCLDY    47  36  65 NW12      30.04R
$$

NJZ001-105-106-008-010-013-015-019>022-104-230400-
NEW JERSEY

CITY           SKY/WX    TMP DP  RH WIND       PRES   REMARKS
Newark/Liberty CLOUDY    52  37  56 N12       29.99F
Teterboro      CLOUDY    52  38  58 N7        29.99S
Caldwell       CLOUDY    51  36  56 N5        30.01S
Somerville     PTCLDY    50  37  61 N5        30.00R
Linden           N/A     51  36  55 N9        30.00S
Sussex         CLOUDY    46  37  71 N5        30.02S
Andover          N/A     46  36  68 VRB5      30.02R
Trenton        PTCLDY    48  39  71 N7        30.00R
Millville      CLOUDY    52  52 100 NW3       30.00R FOG
Atlantic City  CLOUDY    52  49  89 NW3       29.99R
Wrightstown    CLOUDY    49  42  78 N10       29.98R
Toms River     CLOUDY    50  49  96 NW6       30.00R
Belmar         CLOUDY    50  46  86 NW7       30.00S
$$

PAZ047>061-062-071-230400-
EASTERN PENNSYLVANIA

CITY           SKY/WX    TMP DP  RH WIND       PRES   REMARKS
Philadelphia   MOCLDY    52  42  69 N13       30.02R
Allentown      CLOUDY    47  35  63 N9        30.03R
Scranton       CLEAR     45  34  65 N9        30.04S
$$

CTZ002-004>006-009-010-012-RIZ004-006-007-MAZ004-011-015-230400-
SOUTHERN NEW ENGLAND
 IN CT

CITY           SKY/WX    TMP DP  RH WIND       PRES   REMARKS
Bradley INTL   CLOUDY    50  39  66 N3        29.99R
Hartford       CLOUDY    50  38  63 NW7       29.98R
Danbury        PTCLDY    48  37  65 N10       30.00S
Wtrbury/Oxford CLOUDY    46  34  61 N8        29.99S
Bridgeport     MOCLDY    53  38  56 N9        29.98S
Meriden        CLOUDY    51  38  60 NW12      29.97S
New Haven      CLOUDY    51  38  60 NW6       29.98R
Chester        MOCLDY    50  39  66 NW7       29.97R
Groton         CLOUDY    48  46  93 CALM      29.97R
Wilimantic     MOCLDY    50  47  89 CALM      29.98R

 IN RI

CITY           SKY/WX    TMP DP  RH WIND       PRES   REMARKS
Providence     CLOUDY    46  43  89 N7        29.97F
Block Island   CLOUDY    45  44  97 CALM      29.98R
Westerly       CLOUDY    48  47  96 CALM      29.98R
 IN MA

CITY           SKY/WX    TMP DP  RH WIND       PRES   REMARKS
Boston         CLOUDY    43  41  93 N5        29.98S
Worcester      CLOUDY    44  39  82 NW5       29.96S
Westfield      CLOUDY    49  44  83 N5        29.98R
Provincetown   CLOUDY    42  39  89 N12       29.97S
Nantucket      CLOUDY    43  38  82 N17       29.94S
$$

ANZ330-335-338-340-345-350-353-355-230400-
COASTAL MARINE OBSERVATIONS


STATION/POSITION TIME  SKY/WX   TEMP    WIND        PRES    VSBY  WAVE
                                AIR SEA DIR/SP/G                  HT/PER
                 (UTC)          (F)     (DEG/KT/KT) (MB)    (MI)  (FT/S)
NY HARB ENTRANCE 0150            50 50  230/  4/  6 1015.1          4/13
20 S FIRE ISLAND 0250            48 48  260/  4/  4 1014.6          4/11
GREAT SOUTH BAY  0230            53 56  340/ 10/ 12   N/A
23 SSW MONTAUK P 0150            46 45              1015.0          4/10
15 E BARNEGAT LI 0230               50                N/A           5/12
HUDSON CANYON    0150            47 47   20/  2/  4 1014.8          5/10
KINGS POINT      0248            50 47   50/  5/  7 1015.4
EXECUTION ROCKS  NOT AVBL
CENTRAL LI SOUND 0230            47     300/  6/  8   N/A           0
EASTERN LI SOUND NOT AVBL
ROBBINS REEF     0248            52     350/ 12/ 15 1015.7
$$


>>>>>>>>>>>>>>>>>>>>>>>>>>>> KEY <<<<<<<<<<<<<<<<<<<<<<<<<<<
>                                                          <
>     SKY/WX - Sky Condition/Present Weather               <
>     TMP    - Temperature in Fahrenheit                   <
>     DP     - Dew Point in Fahrenheit                     <
>     RH     - Relative Humidity in Percent                <
>     WIND   - Direction (from) and Speed in MPH           <
>     PRES   - Mean Sea Level Pressure (inches of Hg)      <
>     WCI    - Wind Chill Index                            <
>     VSB    - VISIBILITY IN MILES                         <
>     HX     - HEAT INDEX                                  <
>     TC     - TEMPERATURE IN CELSIUS                      <
>     VRB    - VARIABLE WIND DIRECTION                     <
>                                                          <
>>>>>>>>>>>>>>>>>>>>>>>>>>>> KEY <<<<<<<<<<<<<<<<<<<<<<<<<<<




USA.gov is the U.S. government's official web portal to all federal, state and local government web resources and services.